Regional Weather Roundup
Issued by NWS Cleveland, OH

Home | Current Version | Previous Version | Graphics & Text | Print | Product List | Glossary On
Versions: 1 2 3 4 5 6 7 8 9 10 11 12 13 14 15 16 17 18 19 20 21 22 23 24 25 26 27 28 29 30 31 32 33 34 35 36 37 38 39 40 41 42 43 44 45 46 47 48 49 50
779
ASUS41 KCLE 200112
RWRCLE
OHIO REGIONAL WEATHER ROUNDUP
NATIONAL WEATHER SERVICE WILMINGTON, OH
900 PM EDT THU OCT 19 2017

NOTE: "FAIR" INDICATES FEW OR NO CLOUDS BELOW 12,000 FEET WITH NO
SIGNIFICANT WEATHER AND/OR OBSTRUCTIONS TO VISIBILITY.

OHZ001>008-015>018-024>027-034-035-043-044-200200-
   NORTHWEST OHIO

CITY           SKY/WX    TMP DP  RH WIND       PRES   REMARKS
DEFIANCE       FAIR      50  40  68 CALM      30.18R
FINDLAY        FAIR      59  48  67 W6        30.17R
TOLEDO EXPRESS FAIR      55  45  68 W5        30.17R
TOLEDO EXEC    FAIR      55  39  54 W6        30.17R
LIMA           FAIR      59  51  75 W5        30.19R
$$

OHZ009>014-019>023-028>033-038-089-200200-
   NORTHEAST OHIO

CITY           SKY/WX    TMP DP  RH WIND       PRES   REMARKS
CLE-HOPKINS    MOCLDY    61  50  67 W6        30.17S
CLE-LAKEFRONT  FAIR      62  56  80 W8        30.14S
CUY CO. ARPT   PTCLDY    61  55  82 W9        30.15S
LORAIN-ELYRIA  FAIR      60  46  59 W5        30.16S
ASHTABULA      FAIR      58  54  86 CALM      30.15S
AKRON-CANTON   FAIR      61  48  62 SW5       30.17R
WOOSTER        FAIR      50  48  93 SW3       30.17S
MANSFIELD      FAIR      61  49  64 SW5       30.18S
YOUNGSTOWN     MOCLDY    60  49  66 SW7       30.15S
$$

OHZ042-051>053-060>062-070>072-077>081-200200-
  SOUTHWEST OHIO

CITY           SKY/WX    TMP DP  RH WIND       PRES   REMARKS
CINC-COVINGTON FAIR      62  52  69 SW6       30.22R
CINC-LUNKEN    FAIR      56  54  93 CALM      30.23R
HAMILTON       FAIR      54  51  90 CALM      30.22R
DAYTON         FAIR      60  51  72 SW6       30.22R
WRIGHT-PAT AFB FAIR      55  51  86 SW6       30.20S
DAYTON GENERAL FAIR      62  50  64 CALM      30.21R
WILMINGTON     FAIR      58  51  78 SW5       30.22R
$$

OHZ036-037-039>041-045>050-054>059-063>069-073>076-082>088-200200-
  CENTRAL AND SOUTHEAST OHIO

CITY           SKY/WX    TMP DP  RH WIND       PRES   REMARKS
COLUMBUS       MOCLDY    65  50  58 SW6       30.19R
OSU AIRPORT    FAIR      63  51  65 SW6       30.20R
BOLTON FIELD   FAIR      60  49  67 SW6       30.21R
RICKENBACK AFB FAIR      59  49  68 SW6       30.20R
NEWARK         FAIR      60  48  64 W3        30.19R
MARION         FAIR      61  47  59 SW5       30.19R
LANCASTER      FAIR      59  49  69 SW5       30.20S
ZANESVILLE     FAIR      61  48  62 SW5       30.19S
NEW PHILLY     FAIR      64  49  57 CALM      30.18S
$$




USA.gov is the U.S. government's official web portal to all federal, state and local government web resources and services.